Volver al catálogo

PRAETORIAN SDA_618

ActivoMilitarPO
NORAD 65581·PAYLOAD·🇺🇸 United States

Lanzado Sep 10, 2025 desde Vandenberg Space Force Base

Loading…

Próximos Pases (próximas 24 horas)

TLE

ActualizadoSource: Space-Track

Época: Sep 14, 2026, 09:18 UTC

1 65581U 25203S   26257.38796596  .00000110  00000-0  88385-4 0  9990
2 65581  81.2996 287.8653 0008961 318.9918  41.0564 13.84231167 51051

Sigue PRAETORIAN SDA_618 en tiempo real con AllMySat

Download on the App Store